Time,TemperatureF,DewpointF,PressureIn,WindDirection,WindDirectionDegrees,WindSpeedMPH,WindSpeedGustMPH,Humidity,HourlyPrecipIn,Conditions,Clouds,dailyrainin,SoftwareType,DateUTC
2013-04-06 00:00:00,54.7,50.0,30.11,North,0,0.0,0.0,84,0.00,,,0.00,WUHU216HW,2013-04-06 07:00:00,
2013-04-06 00:05:00,54.7,50.0,30.11,North,0,0.0,0.0,84,0.00,,,0.00,WUHU216HW,2013-04-06 07:05:00,
2013-04-06 00:30:00,54.4,50.0,30.11,North,0,0.0,0.0,85,0.00,,,0.00,WUHU216HW,2013-04-06 07:30:00,
2013-04-06 00:35:00,54.4,50.0,30.11,North,0,0.0,0.0,85,0.00,,,0.00,WUHU216HW,2013-04-06 07:35:00,
2013-04-06 01:00:00,54.0,49.9,30.11,North,0,0.0,0.0,86,0.00,,,0.00,WUHU216HW,2013-04-06 08:00:00,
2013-04-06 01:05:00,54.0,49.9,30.11,North,0,0.0,0.0,86,0.00,,,0.00,WUHU216HW,2013-04-06 08:05:00,
2013-04-06 01:30:00,54.2,50.0,30.12,North,0,0.0,0.0,86,0.00,,,0.00,WUHU216HW,2013-04-06 08:30:00,
2013-04-06 01:35:00,54.2,50.0,30.12,North,0,0.0,0.0,86,0.00,,,0.00,WUHU216HW,2013-04-06 08:35:00,
2013-04-06 02:00:00,53.6,49.5,30.11,North,0,0.0,0.0,86,0.00,,,0.00,WUHU216HW,2013-04-06 09:00:00,
2013-04-06 02:05:00,53.6,49.5,30.11,North,0,0.0,0.0,86,0.00,,,0.00,WUHU216HW,2013-04-06 09:05:00,
2013-04-06 02:30:00,53.5,49.7,30.10,North,0,0.0,0.0,87,0.00,,,0.00,WUHU216HW,2013-04-06 09:30:00,
2013-04-06 02:35:00,53.5,49.7,30.10,North,0,0.0,0.0,87,0.00,,,0.00,WUHU216HW,2013-04-06 09:35:00,
2013-04-06 03:00:00,53.1,49.6,30.09,North,0,0.0,0.0,88,0.00,,,0.00,WUHU216HW,2013-04-06 10:00:00,
2013-04-06 03:05:00,53.1,49.6,30.09,North,0,0.0,0.0,88,0.00,,,0.00,WUHU216HW,2013-04-06 10:05:00,
2013-04-06 03:30:00,52.7,49.2,30.09,North,0,0.0,0.0,88,0.00,,,0.00,WUHU216HW,2013-04-06 10:30:00,
2013-04-06 03:35:00,52.7,49.2,30.09,North,0,0.0,0.0,88,0.00,,,0.00,WUHU216HW,2013-04-06 10:35:00,
2013-04-06 04:00:00,52.7,49.6,30.09,North,0,0.0,0.0,89,0.00,,,0.00,WUHU216HW,2013-04-06 11:00:00,
2013-04-06 04:05:00,52.7,49.6,30.09,North,0,0.0,0.0,89,0.00,,,0.00,WUHU216HW,2013-04-06 11:05:00,
2013-04-06 04:30:00,52.9,49.8,30.08,North,0,0.0,0.0,89,0.00,,,0.00,WUHU216HW,2013-04-06 11:30:00,
2013-04-06 04:33:00,52.9,49.8,30.08,North,0,0.0,0.0,89,0.00,,,0.00,WUHU216HW,2013-04-06 11:33:00,
2013-04-06 04:38:00,52.9,49.8,30.08,North,0,0.0,0.0,89,0.00,,,0.00,WUHU216HW,2013-04-06 11:38:00,
2013-04-06 05:00:00,52.9,49.8,30.09,North,0,0.0,0.0,89,0.00,,,0.00,WUHU216HW,2013-04-06 12:00:00,
2013-04-06 05:05:00,52.9,49.8,30.09,North,0,0.0,0.0,89,0.00,,,0.00,WUHU216HW,2013-04-06 12:05:00,
2013-04-06 05:30:00,53.1,50.2,30.08,North,0,0.0,0.0,90,0.00,,,0.00,WUHU216HW,2013-04-06 12:30:00,
2013-04-06 05:35:00,53.1,50.2,30.08,North,0,0.0,0.0,90,0.00,,,0.00,WUHU216HW,2013-04-06 12:35:00,
2013-04-06 06:00:00,53.3,50.4,30.09,North,0,0.0,0.0,90,0.00,,,0.00,WUHU216HW,2013-04-06 13:00:00,
2013-04-06 06:05:00,53.3,50.4,30.09,North,0,0.0,0.0,90,0.00,,,0.00,WUHU216HW,2013-04-06 13:05:00,
2013-04-06 06:30:00,53.5,50.6,30.09,North,0,0.0,0.0,90,0.00,,,0.00,WUHU216HW,2013-04-06 13:30:00,
2013-04-06 06:35:00,53.5,50.6,30.09,North,0,0.0,0.0,90,0.00,,,0.00,WUHU216HW,2013-04-06 13:35:00,
2013-04-06 07:00:00,53.6,50.8,30.09,North,0,0.0,0.0,90,0.00,,,0.00,WUHU216HW,2013-04-06 14:00:00,
2013-04-06 07:05:00,53.6,50.8,30.09,North,0,0.0,0.0,90,0.00,,,0.00,WUHU216HW,2013-04-06 14:05:00,
2013-04-06 07:30:00,54.0,51.1,30.09,North,0,0.0,0.0,90,0.00,,,0.00,WUHU216HW,2013-04-06 14:30:00,
2013-04-06 07:35:00,54.0,51.1,30.09,North,0,0.0,0.0,90,0.00,,,0.00,WUHU216HW,2013-04-06 14:35:00,
2013-04-06 08:00:00,54.7,52.1,30.10,North,0,0.0,0.0,91,0.00,,,0.00,WUHU216HW,2013-04-06 15:00:00,
2013-04-06 08:05:00,54.7,52.1,30.10,North,0,0.0,0.0,91,0.00,,,0.00,WUHU216HW,2013-04-06 15:05:00,
2013-04-06 08:30:00,55.6,53.0,30.11,North,0,0.0,0.0,91,0.00,,,0.00,WUHU216HW,2013-04-06 15:30:00,
2013-04-06 08:35:00,55.6,53.0,30.11,North,0,0.0,0.0,91,0.00,,,0.00,WUHU216HW,2013-04-06 15:35:00,
2013-04-06 09:00:00,56.9,54.0,30.11,North,0,0.0,0.0,90,0.00,,,0.00,WUHU216HW,2013-04-06 16:00:00,
2013-04-06 09:05:00,56.9,54.0,30.11,North,0,0.0,0.0,90,0.00,,,0.00,WUHU216HW,2013-04-06 16:05:00,
2013-04-06 09:30:00,57.6,54.4,30.11,North,0,0.0,0.0,89,0.00,,,0.00,WUHU216HW,2013-04-06 16:30:00,
2013-04-06 09:35:00,57.6,54.4,30.11,North,0,0.0,0.0,89,0.00,,,0.00,WUHU216HW,2013-04-06 16:35:00,
2013-04-06 10:00:00,58.3,55.4,30.11,North,0,0.0,0.0,90,0.00,,,0.00,WUHU216HW,2013-04-06 17:00:00,
2013-04-06 10:05:00,58.3,55.4,30.11,North,0,0.0,0.0,90,0.00,,,0.00,WUHU216HW,2013-04-06 17:05:00,
2013-04-06 10:30:00,61.2,57.7,30.12,North,0,0.0,0.0,88,0.00,,,0.00,WUHU216HW,2013-04-06 17:30:00,
2013-04-06 10:35:00,61.2,57.7,30.12,North,0,0.0,0.0,88,0.00,,,0.00,WUHU216HW,2013-04-06 17:35:00,
2013-04-06 11:00:00,63.9,57.2,30.13,North,0,0.0,0.0,79,0.00,,,0.00,WUHU216HW,2013-04-06 18:00:00,
2013-04-06 11:05:00,63.9,57.2,30.13,North,0,0.0,0.0,79,0.00,,,0.00,WUHU216HW,2013-04-06 18:05:00,
2013-04-06 11:30:00,63.0,55.6,30.13,North,0,0.0,0.0,77,0.00,,,0.00,WUHU216HW,2013-04-06 18:30:00,
2013-04-06 11:35:00,63.0,55.6,30.13,North,0,0.0,0.0,77,0.00,,,0.00,WUHU216HW,2013-04-06 18:35:00,
2013-04-06 12:00:00,64.3,55.4,30.13,North,0,0.0,0.0,73,0.00,,,0.00,WUHU216HW,2013-04-06 19:00:00,
2013-04-06 12:05:00,64.3,55.4,30.13,North,0,0.0,0.0,73,0.00,,,0.00,WUHU216HW,2013-04-06 19:05:00,
2013-04-06 12:30:00,64.4,55.3,30.12,North,0,0.0,0.0,72,0.00,,,0.00,WUHU216HW,2013-04-06 19:30:00,
2013-04-06 12:35:00,64.4,55.3,30.12,North,0,0.0,0.0,72,0.00,,,0.00,WUHU216HW,2013-04-06 19:35:00,
2013-04-06 13:00:00,66.6,56.1,30.11,North,0,0.0,0.0,69,0.00,,,0.00,WUHU216HW,2013-04-06 20:00:00,
2013-04-06 13:05:00,66.6,56.1,30.11,North,0,0.0,0.0,69,0.00,,,0.00,WUHU216HW,2013-04-06 20:05:00,
2013-04-06 13:30:00,67.7,54.6,30.10,North,0,0.0,0.0,63,0.00,,,0.00,WUHU216HW,2013-04-06 20:30:00,
2013-04-06 13:35:00,67.7,54.6,30.10,North,0,0.0,0.0,63,0.00,,,0.00,WUHU216HW,2013-04-06 20:35:00,
2013-04-06 14:00:00,71.1,58.3,30.09,North,0,0.0,0.0,64,0.00,,,0.00,WUHU216HW,2013-04-06 21:00:00,
2013-04-06 14:05:00,71.1,58.3,30.09,North,0,0.0,0.0,64,0.00,,,0.00,WUHU216HW,2013-04-06 21:05:00,
2013-04-06 14:30:00,72.0,59.6,30.09,North,0,0.0,0.0,65,0.00,,,0.00,WUHU216HW,2013-04-06 21:30:00,
2013-04-06 14:35:00,72.0,59.6,30.09,North,0,0.0,0.0,65,0.00,,,0.00,WUHU216HW,2013-04-06 21:35:00,
2013-04-06 15:00:00,69.5,57.2,30.10,North,0,0.0,0.0,65,0.00,,,0.00,WUHU216HW,2013-04-06 22:00:00,
2013-04-06 15:05:00,69.5,57.2,30.10,North,0,0.0,0.0,65,0.00,,,0.00,WUHU216HW,2013-04-06 22:05:00,
2013-04-06 15:30:00,71.6,59.7,30.10,North,0,0.0,0.0,66,0.00,,,0.00,WUHU216HW,2013-04-06 22:30:00,
2013-04-06 15:35:00,71.6,59.7,30.10,North,0,0.0,0.0,66,0.00,,,0.00,WUHU216HW,2013-04-06 22:35:00,
2013-04-06 16:00:00,72.0,58.7,30.08,North,0,0.0,0.0,63,0.00,,,0.00,WUHU216HW,2013-04-06 23:00:00,
2013-04-06 16:05:00,72.0,58.7,30.08,North,0,0.0,0.0,63,0.00,,,0.00,WUHU216HW,2013-04-06 23:05:00,
2013-04-06 16:30:00,70.7,56.7,30.08,North,0,0.0,0.0,61,0.00,,,0.00,WUHU216HW,2013-04-06 23:30:00,
2013-04-06 16:35:00,70.7,56.7,30.08,North,0,0.0,0.0,61,0.00,,,0.00,WUHU216HW,2013-04-06 23:35:00,
2013-04-06 17:00:00,69.3,54.4,30.08,North,0,0.0,0.0,59,0.00,,,0.00,WUHU216HW,2013-04-07 00:00:00,
2013-04-06 17:05:00,69.3,54.4,30.08,North,0,0.0,0.0,59,0.00,,,0.00,WUHU216HW,2013-04-07 00:05:00,
2013-04-06 17:30:00,68.0,55.4,30.07,North,0,0.0,0.0,64,0.00,,,0.00,WUHU216HW,2013-04-07 00:30:00,
2013-04-06 17:35:00,68.0,55.4,30.07,North,0,0.0,0.0,64,0.00,,,0.00,WUHU216HW,2013-04-07 00:35:00,
2013-04-06 18:00:00,66.2,54.1,30.08,North,0,0.0,0.0,65,0.00,,,0.00,WUHU216HW,2013-04-07 01:00:00,
2013-04-06 18:05:00,66.2,54.1,30.08,North,0,0.0,0.0,65,0.00,,,0.00,WUHU216HW,2013-04-07 01:05:00,
2013-04-06 18:30:00,63.4,53.5,30.08,North,0,0.0,0.0,70,0.00,,,0.00,WUHU216HW,2013-04-07 01:30:00,
2013-04-06 18:35:00,63.4,53.5,30.08,North,0,0.0,0.0,70,0.00,,,0.00,WUHU216HW,2013-04-07 01:35:00,
2013-04-06 19:00:00,60.8,52.2,30.08,North,0,0.0,0.0,73,0.00,,,0.00,WUHU216HW,2013-04-07 02:00:00,
2013-04-06 19:05:00,60.8,52.2,30.08,North,0,0.0,0.0,73,0.00,,,0.00,WUHU216HW,2013-04-07 02:05:00,
2013-04-06 19:30:00,58.7,51.1,30.09,North,0,0.0,0.0,76,0.00,,,0.00,WUHU216HW,2013-04-07 02:30:00,
2013-04-06 19:35:00,58.7,51.1,30.09,North,0,0.0,0.0,76,0.00,,,0.00,WUHU216HW,2013-04-07 02:35:00,
2013-04-06 20:00:00,56.5,50.0,30.08,North,0,0.0,0.0,79,0.00,,,0.00,WUHU216HW,2013-04-07 03:00:00,
2013-04-06 20:05:00,56.5,50.0,30.08,North,0,0.0,0.0,79,0.00,,,0.00,WUHU216HW,2013-04-07 03:05:00,
2013-04-06 20:30:00,54.7,48.7,30.09,North,0,0.0,0.0,80,0.00,,,0.00,WUHU216HW,2013-04-07 03:30:00,
2013-04-06 20:35:00,54.7,48.7,30.09,North,0,0.0,0.0,80,0.00,,,0.00,WUHU216HW,2013-04-07 03:35:00,
2013-04-06 21:00:00,53.6,48.3,30.09,North,0,0.0,0.0,82,0.00,,,0.00,WUHU216HW,2013-04-07 04:00:00,
2013-04-06 21:02:00,53.6,48.3,30.09,North,0,0.0,0.0,82,0.00,,,0.00,WUHU216HW,2013-04-07 04:02:00,
2013-04-06 21:08:00,53.6,48.3,30.09,North,0,0.0,0.0,82,0.00,,,0.00,WUHU216HW,2013-04-07 04:08:00,
2013-04-06 21:30:00,52.9,47.9,30.11,North,0,0.0,0.0,83,0.00,,,0.00,WUHU216HW,2013-04-07 04:30:00,
2013-04-06 21:35:00,52.9,47.9,30.11,North,0,0.0,0.0,83,0.00,,,0.00,WUHU216HW,2013-04-07 04:35:00,
2013-04-06 22:00:00,52.9,48.3,30.11,North,0,0.0,0.0,84,0.00,,,0.00,WUHU216HW,2013-04-07 05:00:00,
2013-04-06 22:05:00,52.9,48.3,30.11,North,0,0.0,0.0,84,0.00,,,0.00,WUHU216HW,2013-04-07 05:05:00,
2013-04-06 22:30:00,53.3,48.9,30.12,North,0,0.0,0.0,85,0.00,,,0.00,WUHU216HW,2013-04-07 05:30:00,
2013-04-06 22:35:00,53.3,48.9,30.12,North,0,0.0,0.0,85,0.00,,,0.00,WUHU216HW,2013-04-07 05:35:00,
2013-04-06 23:00:00,53.6,49.2,30.11,North,0,0.0,0.0,85,0.00,,,0.00,WUHU216HW,2013-04-07 06:00:00,
2013-04-06 23:05:00,53.6,49.2,30.11,North,0,0.0,0.0,85,0.00,,,0.00,WUHU216HW,2013-04-07 06:05:00,
2013-04-06 23:30:00,53.6,49.2,30.12,North,0,0.0,0.0,85,0.00,,,0.00,WUHU216HW,2013-04-07 06:30:00,
2013-04-06 23:35:00,53.6,49.2,30.12,North,0,0.0,0.0,85,0.00,,,0.00,WUHU216HW,2013-04-07 06:35:00,